EW6790 Weather Reports


time (UTC)temp
C
wind
direction
speed
KPH
gust
KPH
rain 1hr
cm
rain 24hr
cm
rain mn
cm
humidity
%
barometer
mb
20260903193037 29 208 20.9 35.4 0.00 0.13 0.00 70 1006.0
20260903191536 28 200 22.5 33.8 0.00 0.13 0.00 71 1006.2
20260903190003 28 177 24.1 45.1 0.00 0.13 0.00 70 1006.2
20260903184503 28 172 24.1 43.5 0.00 0.13 0.00 69 1006.1
20260903183043 28 208 32.2 43.5 0.00 0.13 0.00 70 1006.2
20260903181546 28 178 22.5 40.2 0.00 0.13 0.00 72 1006.5
20260903180043 27 169 16.1 37.0 0.00 0.13 0.00 76 1006.5
20260903174516 26 209 19.3 32.2 0.00 0.13 0.00 76 1006.4
20260903173102 26 174 24.1 38.6 0.00 0.13 0.00 75 1006.4
20260903171553 27 176 24.1 41.8 0.00 0.13 0.13 73 1006.6
20260903170100 27 194 24.1 37.0 0.00 0.13 0.13 76 1006.3
20260903164632 26 179 20.9 33.8 0.00 0.13 0.13 78 1006.7
20260903163012 26 154 29.0 41.8 0.00 0.13 0.13 76 1007.0
20260903161510 27 193 20.9 49.9 0.00 0.13 0.13 74 1007.7
20260903160054 26 183 30.6 45.1 0.00 0.13 0.13 75 1007.8
20260903154556 26 193 16.1 40.2 0.00 0.13 0.13 77 1007.9
20260903153034 25 181 16.1 38.6 0.00 0.13 0.13 80 1007.8
20260903151544 25 167 17.7 33.8 0.00 0.13 0.13 83 1007.8
20260903150015 25 134 16.1 37.0 0.00 0.13 0.13 84 1008.1
20260903144520 24 195 14.5 32.2 0.00 0.13 0.13 86 1008.1
20260903143100 23 134 14.5 30.6 0.00 0.13 0.13 85 1008.0
20260903141556 23 113 12.9 27.4 0.03 0.13 0.13 87 1007.8
20260903140051 22 129 14.5 35.4 0.10 0.13 0.13 87 1008.0
20260903134542 22 167 14.5 29.0 0.10 0.13 0.13 87 1007.9
20260903133019 21 191 17.7 27.4 0.10 0.13 0.13 87 1007.6
20260903131517 22 130 9.7 20.9 0.08 0.10 0.10 87 1008.7
20260903130100 22 186 6.4 16.1 0.00 0.03 0.03 87 1008.9
20260903124608 22 165 6.4 16.1 0.00 0.03 0.03 87 1008.5
20260903123042 -17 0.0 0.0 0.00 0.03 0.03 1008.0
20260903121537 -17 0.0 0.0 0.00 0.03 0.03 1008.2
20260903120036 -17 0.0 0.0 0.00 0.03 0.03 1008.3
20260903114540 -17 0.0 0.0 0.00 0.03 0.03 1008.1
20260903113024 -17 0.0 0.0 0.00 0.03 0.03 1008.1
20260903111520 -17 0.0 0.0 0.00 0.03 0.03 1007.8
20260903110015 -17 0.0 0.0 0.00 0.03 0.03 1008.6
20260903104511 -17 0.0 0.0 0.00 0.03 0.03 1008.4
20260903103049 -17 0.0 0.0 0.00 0.03 0.03 1008.7
20260903101545 -17 0.0 0.0 0.03 0.03 0.03 1009.4
20260903100030 -17 0.0 0.0 0.03 0.03 0.03 1009.8
20260903094524 22 105 11.3 32.2 0.03 0.03 0.03 78 1008.8
20260903093003 22 175 17.7 29.0 0.03 0.03 0.03 84 1007.8
20260903091600 22 210 16.1 30.6 0.00 0.00 0.00 87 1008.8
20260903090040 22 249 6.4 25.7 0.00 0.00 0.00 86 1009.4
20260903084538 23 197 19.3 29.0 0.00 0.00 0.00 87 1008.9
20260903083020 23 238 4.8 12.9 0.00 0.00 0.00 86 1009.0
20260903081519 23 172 9.7 11.3 0.00 0.00 0.00 87 1007.7
20260903074604 22 134 6.4 12.9 0.00 0.00 0.00 70 1007.7
20260903073052 22 183 1.6 8.0 0.00 0.00 0.00 71 1007.6
20260903071548 22 143 4.8 11.3 0.00 0.00 0.00 73 1007.6
20260903070046 22 131 6.4 12.9 0.00 0.00 0.00 72 1007.9
20260903064544 22 163 4.8 8.0 0.00 0.00 0.00 73 1007.9
20260903063044 22 160 6.4 9.7 0.00 0.00 0.00 69 1008.0
20260903061543 22 170 3.2 6.4 0.00 2.46 0.00 66 1007.9
20260903060042 22 126 1.6 6.4 0.00 2.46 0.00 70 1008.0
20260903054541 22 129 3.2 6.4 0.00 2.46 0.00 69 1008.0
20260903053023 22 114 0.0 3.2 0.00 2.46 0.00 66 1008.0
20260903051521 22 116 3.2 6.4 0.00 3.35 0.00 68 1008.0
20260903050003 22 106 1.6 4.8 0.00 3.35 0.00 71 1008.1
20260903044502 22 113 3.2 6.4 0.00 3.35 0.00 70 1008.1
20260903043101 23 118 4.8 6.4 0.00 3.35 0.00 71 1008.1
20260903041544 22 113 3.2 6.4 0.00 3.38 0.00 72 1008.2
20260903040043 22 113 1.6 6.4 0.00 3.38 0.00 74 1008.2
20260903034523 23 127 3.2 6.4 0.00 3.38 0.00 78 1008.3
20260903033031 23 113 4.8 6.4 0.00 3.38 0.00 80 1008.4
20260903031501 23 120 4.8 8.0 0.00 3.38 0.00 83 1008.3
20260903030100 23 116 3.2 6.4 0.00 3.38 0.00 83 1008.4
20260903024545 23 136 3.2 6.4 0.00 3.38 0.00 84 1008.3
20260903023040 24 148 4.8 6.4 0.00 3.38 0.00 85 1008.3
20260903021533 24 128 3.2 6.4 0.00 3.38 0.00 85 1008.2
20260903020019 25 107 3.2 6.4 0.00 3.38 0.00 86 1008.1
20260903014502 25 136 3.2 6.4 0.00 3.38 0.00 86 1007.9
20260903013100 25 132 4.8 8.0 0.00 3.38 0.00 86 1007.7
20260903011539 25 108 3.2 8.0 0.00 3.38 0.00 86 1007.7
20260903010037 26 130 3.2 8.0 0.00 3.38 0.00 85 1007.6
20260903004521 27 133 3.2 6.4 0.00 3.38 0.00 83 1007.7
20260903003012 28 134 1.6 8.0 0.00 3.38 0.00 80 1007.7
20260903001556 28 135 0.0 4.8 0.00 3.38 0.00 76 1007.8
20260903000054 30 180 4.8 9.7 0.00 3.38 0.00 73 1007.8
20260902234537 30 167 4.8 9.7 0.00 3.38 0.00 71 1007.8
20260902233036 30 169 6.4 14.5 0.00 3.38 0.00 70 1007.9
20260902231525 30 215 11.3 17.7 0.00 3.38 0.00 68 1007.8
20260902230025 31 168 8.0 14.5 0.00 3.38 0.00 69 1007.9
20260902224524 31 165 6.4 19.3 0.00 3.38 0.00 68 1008.0
20260902223022 31 120 9.7 16.1 0.00 3.38 0.00 65 1007.9
20260902221521 31 162 8.0 17.7 0.00 3.38 0.00 64 1008.0
20260902220020 31 198 11.3 19.3 0.00 3.38 0.00 63 1008.2
20260902214526 31 153 11.3 20.9 0.00 3.38 0.00 64 1008.2
20260902213017 31 159 9.7 16.1 0.00 3.38 0.00 66 1008.3
20260902211605 31 169 8.0 12.9 0.00 3.38 0.00 66 1008.4
20260902204537 31 206 9.7 17.7 0.00 3.38 0.00 63 1008.5
20260902203035 31 195 8.0 14.5 0.00 3.38 0.00 66 1008.6
20260902201528 30 197 8.0 14.5 0.00 3.38 0.00 65 1008.7
20260902200026 31 204 6.4 14.5 0.00 3.38 0.00 64 1008.9
20260902194518 30 257 4.8 11.3 0.00 3.38 0.00 64 1008.9